Погода в Теплом Стане

Россия / Самарская область     53°58′42″N   50°10′17″E
темп.,
°C
ветер,
м/с
пор.,
м/с
влажн.,
%
обл.,
%
осадки,
мм/ч
давл.,
гПа
погр.,
м
14 июня, пн
пн1401:00+17юв229036 0.0 101421
04:00+16юз1189100 0.0 101411
07:00+20ююв128274 0.0 1015101
10:00+24ю016455 0.0 1015588
13:00+26св2257100 0.1 10151068
16:00+27ссв2255100 0.4 10141474
19:00+21ссз5781100 2.1 1014111
22:00+18ююв3697100 7.1 1015180
15 июня, вт
вт1501:00+18ссз2295100 0.9 101452
04:00+17ююз2396100 1.3 101583
07:00+17ююз2295100 0.1 101678
10:00+22всв337389 0.1 1015468
13:00+26вюв346192 0.0 1014991
16:00+27вюв566028 0.0 10131355
19:00+24в487378 0.4 1011217
22:00+21в41173100 0.4 1010191
16 июня, ср
ср1601:00+20вюв5136981 0.0 1009259
04:00+18юв51168100 0.0 1008205
07:00+19ююв3877100 0.0 1008222
10:00+24ю69686 0.0 1008866
13:00+25ю796232 0.4 10081636
16:00+24ююз697497 4.3 10071119
19:00+22юз6108286 3.8 1007390
22:00+19юз3593100 6.6 100891
17 июня, чт
чт1701:00+17ссз6129389 2.4 1009404
04:00+15ссз61297100 2.4 1012518
07:00+15ссз6119137 0.0 1014633
10:00+18с710595 0.0 10151075
13:00+20ссз79504 0.0 10161694
16:00+20ссз79530 0.0 10171943
19:00+18ссз510640 0.0 1018580
22:00+14ссз49744 0.0 1019164
18 июня, пт
пт1801:00+12ссз411775 0.0 1020223
04:00+11ссз310805 0.0 1021204
07:00+14с5107496 0.0 1023364
10:00+18с695698 0.0 10231274
13:00+20с78485 0.0 10241946
16:00+21ссв56473 0.0 10231957
19:00+19ссз46655 0.0 1024301
22:00+15сз22716 0.0 102413